Location: Lafig�re
(44.4503°N, 4.0357°E)
Time: 07:50:17
(UTC+00:00)

Cosmos 1125 Rocket - Pass Details

Date: 21 January 2021
Orbit: 756 x 781 km, 74.0° (Epoch: 05 March)

Event Time Altitude Azimuth Distance (km) Brightness Sun altitude
Exits shadow 05:16:46 - 349° (N) 3,160 6.5 -20.5°
Reaches altitude 10° 05:19:17 10° 1° (N) 2,335 5.9 -20.0°
Maximum altitude 05:23:38 25° 57° (ENE) 1,528 5.5 -19.3°
Drops below altitude 10° 05:27:59 10° 112° (ESE) 2,331 7.2 -18.5°
Sets 05:30:46 0° 125° (SE) 3,256 7.9 -18.0°
